Date,TemperatureHighF,TemperatureAvgF,TemperatureLowF,DewpointHighF,DewpointAvgF,DewpointLowF,HumidityHigh,HumidityAvg,HumidityLow,PressureMaxIn,PressureMinIn,WindSpeedMaxMPH,WindSpeedAvgMPH,GustSpeedMaxMPH,PrecipitationSumIn
2013-6-1,72,62,50,61,56,46,95,81,57,29.75,29.57,9,3,25,0.02
2013-6-2,59,50,44,46,42,39,88,74,55,29.99,29.75,8,4,18,0.01
2013-6-3,70,58,44,50,45,41,90,64,40,30.06,29.97,7,2,13,0.00
2013-6-4,59,54,52,54,50,43,96,86,58,30.16,30.04,4,1,7,0.28
2013-6-5,56,52,50,54,51,49,97,94,88,30.11,29.94,5,1,12,0.41
2013-6-6,54,52,50,53,51,49,97,95,91,29.97,29.92,2,0,7,0.33
2013-6-7,69,58,50,55,51,46,94,76,49,29.99,29.90,5,1,8,0.01
2013-6-8,68,60,54,58,53,49,95,81,52,29.98,29.89,5,1,14,0.16
2013-6-9,73,61,54,63,56,51,96,84,65,29.98,29.80,5,1,16,0.37
2013-6-10,78,68,57,65,62,56,98,81,61,29.83,29.78,5,1,10,0.28
2013-6-11,79,69,59,65,62,58,97,80,60,29.88,29.80,6,1,11,0.01
2013-6-12,73,66,61,64,62,59,95,86,69,29.90,29.72,5,1,13,0.29
2013-6-13,76,66,57,60,56,52,95,71,47,30.08,29.79,7,2,14,0.03
2013-6-14,77,66,53,58,54,49,93,67,44,30.13,29.95,4,1,11,0.00
2013-6-15,76,67,61,69,63,57,96,88,76,30.01,29.78,7,2,22,0.43
2013-6-16,80,70,57,62,57,52,98,68,38,29.87,29.82,10,3,18,0.33
2013-6-17,77,66,55,64,57,52,92,74,51,29.98,29.84,8,2,16,0.15
2013-6-18,73,63,53,58,51,43,93,67,42,30.09,29.98,5,1,11,0.15
2013-6-19,77,64,50,60,52,46,89,67,49,30.12,30.01,4,1,11,0.00
2013-6-20,83,69,59,65,58,54,86,70,44,30.08,30.02,7,2,14,0.00
2013-6-22,79,73,65,71,68,64,98,84,71,29.96,29.88,5,1,14,0.22
2013-6-23,82,73,65,72,67,62,96,80,57,29.91,29.79,10,3,19,0.15
2013-6-24,80,72,65,72,68,64,96,86,74,29.93,29.81,5,1,13,0.04
2013-6-25,81,73,65,71,67,64,96,82,67,29.87,29.75,5,1,11,0.04
2013-6-26,85,75,69,74,71,68,98,87,66,29.76,29.69,5,1,11,0.10
2013-6-27,83,74,66,71,65,58,98,77,47,29.78,29.68,12,3,22,0.12
2013-6-28,72,67,63,66,62,57,95,84,71,29.72,29.63,9,4,19,0.33
2013-6-29,73,64,60,64,58,51,95,83,61,29.90,29.67,6,3,16,0.18
2013-6-30,80,67,54,54,50,45,81,58,35,30.06,29.90,6,2,13,0.02